Theta_e
323 324 323 323 323 323 326 325 326 325 320 322 323 324 324 324 322 323 323 323 323 323 323 323 323 323 323 323 322 321 322 322 323 324 324 324 323 325 326 324 324 324 323 320
322 325 323 322 322 321 321 322 323 322 320 320 323 322 322 321 321 320 321 321 321 321 320 320 320 320 320 320 320 319 319 319 319 319 320 322 324 324 326 325 323 324 323 318
321 320 319 321 323 323 322 322 322 321 320 320 320 320 321 320 319 319 319 319 319 319 319 319 319 318 318 316 315 316 316 317 318 319 319 320 321 321 323 322 321 320 319 317
319 316 317 318 321 321 323 321 321 321 322 323 320 323 322 321 318 316 316 316 317 316 314 313 313 313 313 312 312 313 314 315 317 318 319 319 319 320 320 320 320 318 317 316
318 318 317 318 319 320 321 320 322 322 322 321 322 322 321 321 320 317 316 314 313 314 313 313 312 313 313 313 313 313 313 314 316 318 318 318 318 318 318 318 317 316 316 315
315 314 317 317 317 319 318 319 319 319 320 327 322 320 320 319 316 314 313 313 313 313 312 313 312 312 312 313 314 313 313 312 314 316 316 316 316 316 316 315 315 315 314 312
315 316 314 317 319 317 317 317 320 320 320 316 315 318 318 314 312 312 314 313 313 312 313 312 312 311 311 313 314 315 314 313 313 313 314 315 315 315 314 314 313 312 311 312
316 316 316 316 316 317 317 314 317 316 317 314 313 313 313 314 314 313 312 313 312 312 313 311 311 311 310 309 310 313 314 314 314 314 314 314 314 313 312 311 310 311 311 311
315 316 314 316 314 316 318 318 314 314 312 314 315 315 315 314 314 313 313 311 312 312 313 312 311 311 311 310 309 310 312 313 313 312 312 312 311 311 311 310 310 310 310 310
314 315 314 313 314 315 317 315 316 317 317 316 314 315 315 315 314 314 312 312 313 312 312 312 311 311 311 310 309 309 309 310 311 311 311 311 311 310 310 310 309 309 309 309
313 314 314 314 315 315 316 317 316 316 316 315 314 314 313 313 313 313 313 313 313 312 313 312 311 311 311 310 308 308 309 309 309 309 310 310 310 310 310 309 309 309 309 309
313 314 315 315 312 312 314 315 316 320 319 317 317 315 310 311 312 312 313 312 312 312 312 312 311 311 311 309 308 307 307 308 308 307 307 307 307 308 308 308 307 307 307 308
312 315 317 318 314 312 315 314 315 316 316 320 317 314 310 309 309 309 309 310 310 310 311 311 311 311 310 309 308 306 306 306 306 306 306 306 306 306 306 306 306 306 306 307
311 313 313 314 313 313 314 314 314 316 318 316 317 314 312 310 311 312 311 311 312 312 312 311 311 311 309 308 307 305 305 305 305 305 305 304 304 304 304 304 304 305 305 306
310 312 311 310 310 311 312 313 313 315 315 317 315 315 313 313 313 312 312 312 312 311 311 311 310 310 308 307 306 305 304 303 303 303 303 303 302 302 302 302 302 302 302 302
308 310 309 309 309 310 311 311 312 313 313 313 313 314 313 312 312 312 312 312 311 311 311 309 308 307 307 305 305 304 303 303 302 302 302 301 301 301 301 300 300 301 301 301
308 309 309 310 309 309 309 309 309 309 311 312 313 313 312 313 312 312 312 312 311 310 309 307 306 304 304 304 304 303 302 302 301 301 301 301 300 300 300 300 300 299 300 300
307 308 309 307 304 308 307 305 308 307 308 309 311 312 312 312 311 311 311 310 309 307 304 303 303 302 301 301 301 301 301 301 300 300 299 299 299 299 298 298 298 298 298 298
303 306 305 305 307 306 303 303 308 309 308 309 310 311 311 311 310 310 305 303 302 301 300 300 300 300 300 300 300 299 299 299 299 298 298 298 298 298 298 298 298 297 297 297
301 302 302 303 303 304 303 306 306 307 309 307 307 308 309 309 310 307 299 299 299 299 300 299 299 299 298 298 298 298 298 298 297 297 297 297 297 297 297 297 297 297 297 297
301 301 302 303 303 304 303 303 306 308 306 304 305 306 307 308 303 299 299 299 299 298 298 298 297 297 297 297 297 297 297 297 297 296 296 296 295 295 295 295 295 295 295 295
302 302 301 301 302 303 302 302 307 305 303 302 301 300 300 300 299 299 298 298 298 297 297 297 297 297 296 296 296 295 295 295 294 294 294 293 293 293 293 292 292 292 292 292
303 304 304 303 303 303 301 303 304 303 302 302 300 299 299 298 298 298 297 297 297 297 296 296 296 296 295 294 293 293 293 292 292 291 291 291 290 290 290 290 290 290 289 289
301 301 303 304 305 303 303 301 302 303 302 301 300 299 298 298 298 297 297 297 296 296 295 295 295 294 293 292 291 290 289 289 289 289 288 288 288 288 288 288 287 287 286 285
301 301 302 303 303 303 303 303 303 303 301 300 298 298 298 298 298 297 297 296 296 295 294 294 293 292 290 289 288 288 287 287 287 287 287 287 287 286 286 285 284 284 283 282
299 301 302 304 302 302 302 300 299 301 301 299 298 298 297 297 297 296 295 295 294 293 293 292 290 288 287 287 286 286 286 285 285 285 285 285 285 285 284 283 283 282 281 281
Wind_Speed
13 6 12 13 12 3 12 4 7 4 5 2 5 10 10 5 4 7 8 8 9 13 13 13 12 12 17 20 22 23 25 27 27 29 30 30 30 29 29 28 28 27 27 25
6 13 9 6 9 7 10 8 8 2 4 3 6 11 11 9 10 13 14 14 16 17 18 16 15 14 16 20 21 23 27 27 25 26 26 25 22 24 23 26 28 28 27 26
11 3 9 8 9 11 11 13 12 7 1 2 6 16 18 12 11 15 17 18 20 18 18 17 16 18 22 25 24 26 29 27 25 23 22 25 26 28 28 26 25 25 25 24
7 7 9 9 13 11 14 12 8 5 3 5 2 6 11 9 6 7 11 14 12 10 11 13 12 14 15 19 22 22 23 24 25 25 24 24 23 21 17 23 24 23 23 25
7 8 10 11 13 10 2 4 6 8 4 8 10 6 12 11 8 11 17 5 4 3 6 8 10 11 11 12 15 18 20 20 21 21 20 20 19 20 22 22 23 22 23 25
7 1 5 4 4 10 11 10 7 2 4 6 14 11 10 10 10 5 2 5 2 1 2 4 6 7 7 10 13 13 14 15 16 16 17 16 17 18 18 19 20 21 22 23
8 5 2 6 12 6 12 12 3 3 4 6 2 11 15 5 6 3 8 1 2 2 3 9 14 14 14 13 12 10 9 9 10 11 12 12 12 13 15 17 19 20 21 23
12 6 10 8 10 8 14 11 4 6 6 5 4 7 3 7 8 6 5 4 2 2 7 13 16 17 16 15 14 14 12 9 8 7 7 8 10 12 14 17 19 21 22 22
11 4 9 10 2 9 11 11 2 1 2 2 6 8 5 6 9 7 5 4 6 8 9 9 12 16 15 13 13 12 11 10 8 9 9 9 11 13 17 18 19 21 22 22
2 6 5 5 3 1 4 10 4 2 3 6 7 8 7 9 12 10 7 8 8 8 9 5 8 15 15 13 11 10 9 9 8 9 10 12 14 15 17 18 20 21 22 24
3 2 5 8 8 12 5 8 4 4 3 4 4 5 2 8 7 9 12 9 9 8 5 3 7 15 15 13 11 11 10 12 13 15 16 17 18 20 22 23 23 25 26 26
3 4 5 5 3 4 12 9 11 3 4 3 3 6 2 4 4 10 11 4 4 4 4 5 9 13 14 10 11 13 14 15 16 17 18 19 20 21 23 24 26 28 29 30
5 3 5 5 0 1 6 11 11 10 1 6 5 2 3 4 6 4 0 2 4 8 8 16 15 16 9 12 12 12 13 13 15 17 18 19 20 22 23 25 27 29 31 32
1 2 2 2 4 2 8 10 13 13 5 5 14 11 3 3 3 4 6 9 15 17 14 15 21 16 8 10 13 12 11 11 12 13 15 15 15 17 18 20 22 25 27 30
3 3 3 4 4 3 3 6 13 18 15 12 9 12 12 11 11 18 21 23 20 18 17 15 12 13 14 17 15 13 11 13 14 15 16 17 18 19 20 21 23 24 26 27
1 3 2 2 2 3 4 10 12 13 12 20 20 26 17 24 23 22 25 18 17 17 12 8 9 13 14 13 11 11 14 17 19 22 23 25 27 27 27 28 28 29 30 31
3 4 2 2 1 3 6 12 14 13 15 16 18 19 16 15 18 19 17 15 13 11 7 8 9 8 9 10 13 17 19 22 24 27 29 30 32 34 34 35 35 35 35 35
4 4 1 2 1 4 3 6 10 16 19 19 20 18 18 20 18 12 7 7 10 5 3 4 5 8 12 16 19 21 24 26 28 30 32 33 35 36 36 37 37 37 37 37
1 2 2 3 5 9 9 6 6 8 14 17 19 18 25 21 2 3 4 5 6 4 4 7 11 15 18 22 24 25 27 29 30 31 33 35 36 38 39 40 41 40 41 41
4 3 2 2 3 6 1 5 4 3 11 16 19 19 18 3 6 3 6 5 2 3 8 11 15 18 22 24 27 28 28 29 31 33 35 37 38 40 41 41 42 42 42 43
4 3 8 7 5 8 7 8 1 9 2 11 11 8 5 1 6 8 3 2 7 11 14 17 18 19 22 25 27 29 30 31 32 32 32 31 31 32 33 35 35 37 38 39
8 8 5 6 6 10 11 2 6 2 5 5 7 8 8 7 2 1 7 10 13 16 18 19 19 20 23 27 27 26 24 24 24 25 26 27 27 28 30 32 32 34 35 37
5 6 4 10 7 2 7 3 8 9 5 2 2 2 1 3 5 9 11 15 17 18 18 19 21 22 21 20 21 22 23 24 24 24 24 25 26 26 27 29 30 31 31 33
6 10 4 3 8 18 17 16 17 15 11 9 9 7 9 10 12 12 14 16 17 20 21 21 19 18 20 21 21 21 21 22 23 24 24 26 27 28 28 28 28 27 27 29
1 7 6 10 15 17 23 20 17 16 17 13 11 11 12 14 16 17 18 18 20 20 20 19 21 21 19 19 19 19 21 22 23 24 26 27 28 28 29 28 28 28 26 24
12 10 7 7 8 11 11 11 12 16 17 13 13 15 15 15 16 18 19 19 19 17 19 21 20 18 18 18 19 19 21 22 24 24 25 26 28 29 30 31 33 28 27 25
Wind_Direction
187 201 206 186 189 243 195 202 255 228 38 280 220 260 257 189 281 249 244 244 252 260 261 257 258 253 258 263 265 266 267 266 263 262 262 263 263 263 261 261 262 264 268 273
164 208 222 250 204 169 163 200 237 239 329 303 241 259 266 256 250 254 260 260 260 264 267 269 270 270 264 267 269 269 271 269 268 266 261 256 257 261 257 263 264 263 265 271
187 138 134 152 183 206 220 224 209 221 168 242 300 266 259 244 249 252 253 255 259 265 274 274 273 271 266 273 276 272 273 271 269 267 260 259 261 264 266 268 269 265 267 277
227 131 182 181 207 197 220 213 259 197 228 244 275 269 249 225 204 215 243 246 254 261 270 281 282 278 276 270 273 275 272 268 260 257 259 260 260 259 258 261 266 272 276 284
167 163 166 199 208 184 216 122 210 223 243 288 230 262 250 254 242 255 249 240 228 223 279 285 288 288 291 286 294 284 275 270 266 262 258 259 264 266 269 272 275 278 283 289
108 27 164 157 137 179 127 121 112 140 220 251 247 242 254 227 213 246 122 135 195 190 323 324 324 328 318 310 314 309 291 280 274 271 269 271 274 277 277 277 279 283 287 288
132 131 119 163 121 160 176 170 136 200 202 244 345 226 243 299 248 204 179 243 150 32 56 77 74 60 45 30 12 355 340 313 293 279 283 285 285 284 284 284 285 286 287 287
172 181 174 179 189 177 190 183 181 208 202 222 111 229 244 238 257 149 203 247 240 167 116 95 71 51 38 27 22 18 12 358 340 317 300 296 293 291 290 288 287 285 285 284
171 117 134 168 80 162 184 218 53 351 14 313 206 225 257 232 247 205 206 184 156 153 146 105 66 39 29 20 12 9 11 4 345 330 319 310 300 300 299 296 291 290 289 286
181 122 204 137 139 133 208 166 175 216 218 244 254 263 259 204 228 187 178 171 161 163 159 111 50 21 17 4 349 344 339 330 325 318 311 306 303 299 295 295 297 298 297 293
128 146 133 151 210 183 168 178 221 181 218 254 270 264 100 278 215 213 161 155 164 178 174 193 346 351 357 346 329 321 313 304 304 301 302 300 300 302 302 301 302 303 302 300
53 86 135 146 65 353 218 210 199 206 179 250 321 255 4 16 210 180 143 99 172 194 221 268 311 334 336 323 315 315 312 304 304 306 304 307 308 305 302 299 299 298 296 295
149 152 128 139 270 207 210 209 227 218 88 203 206 183 16 120 120 127 298 233 220 244 277 302 317 318 305 301 312 305 300 302 300 302 307 311 312 307 304 304 303 301 299 297
127 159 20 202 74 206 202 210 214 229 217 239 232 246 157 113 152 281 234 250 278 293 300 300 301 297 297 313 316 317 313 318 324 327 326 322 318 315 314 312 307 304 302 300
69 106 82 55 39 30 336 257 225 228 237 239 259 259 265 281 291 290 295 294 298 292 292 292 289 293 295 304 305 310 317 322 325 323 321 318 313 310 309 307 304 304 303 302
342 119 100 353 178 172 271 256 245 253 267 263 272 269 272 270 267 269 271 273 275 283 284 285 282 286 289 288 292 302 312 317 319 319 318 316 314 314 314 312 311 309 306 304
152 133 148 126 16 302 275 240 238 245 240 240 255 264 263 258 257 263 264 261 273 282 274 271 276 281 288 293 300 306 308 311 311 311 312 312 311 310 311 311 311 311 310 308
162 116 28 98 147 234 6 326 248 242 246 247 250 260 266 270 285 291 284 251 264 239 186 248 277 287 293 298 301 301 302 304 305 306 307 306 305 306 307 308 309 309 308 307
90 130 122 186 226 310 301 236 207 198 253 250 257 259 261 273 262 230 101 135 152 177 249 285 293 296 299 299 299 300 301 302 303 303 303 305 307 308 309 309 310 310 308 307
198 285 236 158 228 238 36 37 249 240 268 267 266 265 271 174 243 113 129 136 161 275 287 290 291 294 294 295 297 299 301 302 303 304 305 307 307 306 306 307 307 307 306 305
152 193 214 214 255 275 271 262 231 192 273 353 23 29 52 127 56 133 135 289 299 299 295 294 296 299 300 300 301 302 302 301 302 303 304 305 307 307 307 308 308 308 307 306
177 173 193 205 233 263 200 101 220 303 41 57 62 68 84 107 99 259 289 291 298 299 300 301 300 302 302 300 300 302 304 306 307 307 308 309 309 311 311 310 311 312 312 311
217 205 191 199 211 225 183 258 235 289 284 238 178 181 287 311 293 305 301 298 298 298 297 300 304 306 303 303 304 305 304 304 306 308 310 312 313 313 314 314 314 315 314 313
232 231 238 200 233 252 255 262 259 264 245 249 241 261 290 297 296 297 297 297 296 297 299 303 304 303 302 299 299 301 304 307 311 315 318 320 321 321 320 319 318 317 317 317
279 164 224 250 265 281 275 264 256 259 244 242 256 270 281 290 294 297 291 290 293 295 299 300 301 299 297 298 302 306 311 316 320 324 326 326 325 324 322 322 322 322 320 317
208 221 221 247 244 243 272 279 280 242 238 245 271 279 282 284 286 287 289 293 294 293 295 296 295 297 303 307 310 314 318 321 323 325 325 325 326 326 325 324 322 322 321 320